Simultaneous Nadir Overpasses (SNOs) Predictions

Prediction of SNOs between AQUA and METOP-A Satellite Orbit:

Table of predicted SNOs for the next 14.0 days since TLE Epoch: 8/31/2012
Index Date (AQUA) Time (AQUA) AQUA Lat,Lon Date (METOP-A) Time (METOP-A) METOP-A Lat,Lon Distance(km) Time Diff (sec)
1 09/02/2012 07:53:20 -73.77,-124.01 09/02/2012 07:52:32 -73.77,-124.06 1.55 48
2 09/02/2012 08:42:49 73.85, 43.45 09/02/2012 08:43:10 73.87, 43.52 3.27 21
3 09/05/2012 03:27:33 -73.79, -57.62 09/05/2012 03:26:54 -73.78, -57.62 1.00 39
4 09/05/2012 04:17:01 73.82, 109.94 09/05/2012 04:17:33 73.83, 109.83 3.48 32
5 09/07/2012 23:01:46 -73.79, 8.84 09/07/2012 23:01:17 -73.80, 8.83 1.83 29
6 09/07/2012 23:51:15 73.88, 176.27 09/07/2012 23:51:56 73.85, 176.28 3.11 41
7 09/10/2012 17:46:19 73.07, -90.86 09/10/2012 17:45:14 73.04, -93.81 95.75 65
8 09/10/2012 18:35:59 -73.81, 75.23 09/10/2012 18:35:40 -73.83, 75.30 3.29 19
9 09/10/2012 19:25:27 73.85,-117.23 09/10/2012 19:26:19 73.88,-117.26 2.62 52
10 09/13/2012 13:20:39 73.54, -25.38 09/13/2012 13:19:28 73.48, -26.45 34.45 71
11 09/13/2012 14:10:10 -73.80, 141.69 09/13/2012 14:10:03 -73.82, 141.67 1.44 7
12 09/13/2012 14:59:39 73.91, -50.90 09/13/2012 15:00:41 73.91, -50.78 3.49 62




NCC Satellite Simultaneous Nadir Overpasses (SNOs) Prediction Service
